Tracking 35237 objects as of 5-Sep-2026
HD Live streaming from Space Station
objects crossing your sky now

STARLINK-36450

Track STARLINK-36450 now!
10-day predictions
STARLINK-36450 is classified as:


NORAD ID: 67317
Int'l Code: 2026-002N
Launch date: January 4, 2026
Source: United States (US)
Launch site: AIR FORCE EASTERN TEST RANGE (AFETR)
Your satellite tracking list
Your tracking list is empty




NASA's NSSDC Master Catalog

Two Line Element Set (TLE):
1 67317U 26002N   26247.77538280  .00014758  00000-0  54369-3 0  9990
2 67317  43.0017  34.2398 0001405 288.8454  71.2245 15.27643569 38627
Source of the keplerian elements: AFSPC